Regional Weather Roundup
Issued by NWS

Home | Current Version | Previous Version | Text Only | Print | Product List | Glossary Off
Versions: 1 2 3 4 5 6 7 8 9 10 11 12 13 14 15 16 17 18 19 20 21 22 23 24 25 26 27 28 29 30 31 32 33 34 35 36 37 38 39 40 41 42 43 44 45 46 47 48 49 50

000
ASUS43 KLMK 131902
RWRKY
KENTUCKY REGIONAL WEATHER ROUNDUP
NATIONAL WEATHER SERVICE LOUISVILLE KY
200 PM EST WED DEC 13 2017

NOTE "FAIR" INDICATES FEW OR NO CLOUDS BELOW 12,000 FEET
WITH NO SIGNIFICANT WEATHER AND/OR OBSTRUCTIONS TO VISIBILITY.

KYZ001>023-026-027-061>063-070>075-132000-
WESTERN AND SOUTH CENTRAL KENTUCKY

CITY           SKY/WX    TMP DP  RH WIND       PRES   REMARKS
PADUCAH        SUNNY     51  22  31 SW13G32   29.67F
HENDERSON      SUNNY     48  24  39 SW22G31   29.60F
OWENSBORO      MOSUNNY   46  21  37 S24       29.61F
HOPKINSVILLE   SUNNY     48  17  29 S20G29    29.71F
BOWLING GREEN  PTSUNNY   46  14  27 S23G35    29.71F
GLASGOW        NOT AVBL
$$

KYZ024-025-028>034-038-045-046-053-132000-
NORTH CENTRAL KENTUCKY

CITY           SKY/WX    TMP DP  RH WIND       PRES   REMARKS
LOUISVILLE/SDF CLOUDY    43  10  26 S23G31    29.61F
LOUISVILLE/LOU CLOUDY    42  12  29 S20G30    29.62F
FORT KNOX      CLOUDY    41  12  30 S18G30    29.60F
$$

KYZ035>037-039>044-047>052-055>060-089>105-132000-
NORTHEAST KENTUCKY

CITY           SKY/WX    TMP DP  RH WIND       PRES   REMARKS
LEXINGTON      MOSUNNY   39   7  26 S18G31    29.64F WCI  30
COVINGTON      CLOUDY    35  12  38 S16       29.57F WCI  25
FRANKFORT      PTSUNNY   39   8  27 S20G31    29.63F WCI  29
$$

KYZ054-064>069-076>088-106>120-132000-
SOUTHEAST KENTUCKY

CITY           SKY/WX    TMP DP  RH WIND       PRES   REMARKS
JACKSON        PTSUNNY   38   6  26 S8        29.71F WCI  32
LONDON         MOSUNNY   41   1  18 S17G23    29.74F
SOMERSET       SUNNY     43   3  19 W14G24    29.76F
MIDDLESBORO    SUNNY     39   8  28 S8G16     29.81F WCI  33
MONTICELLO     CLEAR     44   7  21 SW22G28   29.76F
$$





USA.gov is the U.S. government's official web portal to all federal, state and local government web resources and services.